Wind_Speed
16 19 19 17 14 12 11 10 10 10 11 12 9 4 4 4 2 2 3 3 2 2 1 1 1 1 1 1 1 1 1 1 2 3 4 4 5 5 6 5 5 4
17 20 20 18 15 12 12 11 10 11 12 12 9 6 6 5 2 1 2 2 1 2 2 2 2 2 3 3 3 3 2 2 2 2 3 4 4 5 5 5 5 4
20 20 19 17 15 14 12 11 11 11 12 11 9 8 6 4 1 2 3 2 2 3 4 4 4 4 5 6 6 6 5 5 4 4 4 4 4 4 4 4 4 5
20 19 18 17 15 14 12 11 11 11 11 10 9 7 5 3 1 4 4 3 3 4 5 6 6 7 7 8 8 8 8 8 7 7 6 6 5 4 4 4 4 4
19 18 17 16 14 12 11 11 11 10 10 9 9 6 3 1 3 6 5 4 4 4 5 6 6 7 8 8 8 8 8 8 8 8 8 7 6 6 6 5 5 5
19 17 16 14 11 10 10 10 10 10 10 8 7 5 2 0 4 6 6 4 4 4 4 4 5 5 6 6 6 6 6 6 6 6 5 5 6 6 5 5 5 4
18 16 15 13 10 9 8 8 9 9 8 7 6 5 2 1 4 6 6 5 3 2 2 2 2 3 3 2 2 3 3 3 3 3 2 2 2 2 2 2 3 3
18 16 14 12 9 8 8 7 8 8 7 7 7 6 4 2 4 5 6 5 3 2 1 1 1 1 1 2 2 2 2 2 1 2 2 2 2 2 2 1 1 1
16 14 13 10 8 8 8 7 8 8 7 8 8 7 6 4 3 4 5 5 5 5 5 4 4 5 5 5 5 5 5 5 5 5 5 5 6 5 4 4 5 4
15 14 12 9 8 8 8 8 8 7 7 8 9 8 7 5 4 4 4 5 6 7 8 8 8 9 9 9 9 9 9 9 8 8 8 8 9 9 8 7 8 9
15 13 12 11 10 10 9 8 8 8 8 8 7 8 8 7 6 6 6 6 6 7 9 10 11 12 13 14 13 13 13 12 12 12 12 12 12 13 13 12 12 13
13 12 13 13 12 11 11 10 8 7 7 7 6 7 8 9 8 8 9 9 9 9 10 12 13 14 15 15 14 14 14 14 14 14 15 16 17 16 17 16 16 17
15 14 14 13 11 10 10 9 6 6 6 6 6 7 8 9 9 11 11 11 11 12 13 14 14 14 15 14 13 14 14 15 16 17 18 20 20 20 20 19 19 19
14 13 12 10 8 7 8 8 7 7 8 8 8 9 8 8 10 11 12 12 13 13 13 14 14 14 14 14 14 14 15 16 18 19 20 20 20 20 21 21 20 19
9 9 9 7 7 8 8 8 8 9 9 9 10 11 10 9 10 11 12 13 13 14 15 16 15 15 15 16 17 16 17 19 21 23 22 20 19 17 19 21 21 21
9 9 8 6 7 8 8 8 8 9 10 10 12 13 12 12 13 13 14 14 14 15 18 17 16 16 17 19 20 21 20 22 25 26 24 22 20 18 19 21 22 21
9 7 6 6 6 7 7 8 9 10 11 12 13 13 13 14 15 14 15 16 16 18 21 20 16 16 17 19 20 22 24 25 27 28 26 25 24 22 21 22 22 21
8 7 7 7 7 8 9 10 11 12 13 13 13 13 13 14 15 14 15 17 18 20 23 23 20 17 17 18 20 21 24 26 29 29 27 27 27 25 23 22 22 20
10 10 10 11 11 11 11 12 12 13 14 14 14 13 14 14 14 14 15 16 18 20 23 24 22 20 19 20 22 23 24 26 30 30 29 28 27 25 23 22 20 18
12 12 13 13 13 14 14 14 15 16 16 16 16 16 16 15 16 16 16 17 18 20 22 23 23 21 20 21 21 22 23 25 28 29 29 29 28 24 21 18 16 14
14 15 15 15 15 16 16 17 19 20 20 19 20 21 20 19 19 19 17 18 19 20 22 25 25 24 22 22 22 22 23 24 26 28 29 29 28 23 17 14 13 13
16 17 18 18 19 18 19 20 21 22 23 23 23 22 21 21 20 19 18 18 19 20 22 24 25 24 24 25 25 25 25 25 25 26 28 30 27 22 17 14 14 14
18 20 21 21 21 21 21 22 23 23 23 23 23 23 23 24 24 24 23 23 22 23 23 24 25 25 25 25 25 24 25 25 24 24 26 28 25 23 21 19 17 17
19 21 22 22 21 20 21 22 23 23 23 24 25 26 27 28 29 29 28 28 27 26 25 25 26 25 24 23 22 22 22 23 22 21 23 25 24 22 22 20 19 19
21 22 22 21 20 21 22 23 24 25 25 27 29 30 30 31 31 31 30 29 29 29 28 28 27 26 26 25 23 21 20 20 19 20 22 23 23 21 20 19 20 20
23 24 24 24 24 24 26 27 28 28 29 30 32 32 31 31 31 31 30 30 30 30 29 28 28 27 27 26 25 22 20 20 20 23 23 21 21 21 20 20 21 21
Wind_Direction
233 228 235 242 244 254 267 280 300 313 328 339 340 325 316 330 349 19 17 4 13 28 39 45 45 66 74 86 97 111 114 109 125 129 136 139 143 156 164 168 171 173
227 223 229 237 242 250 263 276 295 308 321 333 333 313 310 324 331 48 48 36 56 75 85 90 95 94 94 93 85 86 87 84 103 117 128 133 134 144 151 155 158 155
220 220 225 232 238 247 260 274 289 306 319 325 326 316 312 323 307 136 103 103 105 96 97 95 98 98 96 94 89 85 84 83 87 88 95 106 113 127 136 142 150 148
217 220 225 229 235 244 257 272 285 304 314 315 320 317 314 320 172 140 118 120 118 105 104 100 100 100 97 95 92 89 89 86 85 82 81 85 91 101 109 111 118 123
218 222 224 226 233 243 258 272 285 299 302 303 310 307 309 329 163 141 121 124 121 108 108 104 102 103 100 99 96 94 93 89 86 85 82 81 81 80 86 91 97 106
217 220 222 225 233 246 262 273 284 292 289 289 294 283 277 251 169 150 128 127 123 110 110 103 99 97 95 99 98 93 91 88 86 85 84 83 82 80 80 84 85 91
212 213 217 224 236 251 263 270 278 282 280 280 276 255 241 172 168 161 145 142 143 121 112 97 84 73 69 74 69 67 75 74 70 64 61 63 69 74 79 88 92 90
208 213 218 224 234 247 254 259 265 269 272 270 255 236 223 183 163 170 167 171 186 198 213 245 284 313 324 315 310 313 311 310 327 327 319 318 313 306 304 288 218 183
212 217 220 223 232 241 245 250 256 262 267 257 239 227 226 213 176 176 188 200 214 226 239 249 258 265 271 269 267 269 272 274 276 285 293 293 293 292 287 282 276 266
209 213 215 216 224 232 237 243 248 251 253 245 230 223 227 225 216 216 217 221 231 238 243 248 253 258 263 263 263 263 264 266 269 272 278 281 286 291 287 283 282 277
204 210 215 216 221 229 231 231 236 243 245 244 235 230 232 234 237 243 247 248 250 254 254 255 255 258 260 261 262 263 264 268 271 273 278 282 285 289 290 290 289 284
204 210 220 222 220 223 226 223 223 234 243 247 249 246 245 246 245 248 252 256 260 263 264 262 260 262 264 264 263 265 267 269 272 275 279 282 283 285 287 291 294 293
196 203 218 225 220 224 237 240 235 239 247 249 254 254 252 252 249 248 251 255 259 264 268 269 268 265 262 259 259 264 271 273 275 277 280 281 280 279 278 282 288 293
198 200 212 221 227 238 252 258 259 261 258 253 254 253 250 249 247 249 251 252 256 261 264 264 263 258 257 260 263 267 274 278 281 283 283 280 277 274 275 278 280 281
211 208 215 225 240 246 249 249 251 258 260 261 265 267 266 263 260 263 267 264 259 256 252 252 257 264 272 277 274 273 279 284 284 283 280 276 274 276 281 282 277 274
225 220 219 228 243 247 251 252 251 256 259 260 266 271 275 274 272 274 278 275 267 261 261 265 272 278 282 280 274 274 281 286 286 283 281 279 280 280 283 283 277 271
236 234 226 231 244 251 258 261 259 259 257 254 258 263 264 266 269 273 275 275 269 265 267 272 274 274 276 275 274 276 280 282 284 284 283 282 281 280 282 283 276 267
235 245 245 249 257 259 261 265 264 264 264 261 260 259 258 260 262 263 267 270 267 264 265 267 267 267 268 270 272 275 277 279 281 283 283 282 282 282 282 281 272 261
229 241 248 255 263 264 264 267 266 266 268 266 264 261 258 260 262 263 266 268 266 265 267 268 268 267 268 271 273 274 276 278 279 282 283 283 283 283 283 279 267 254
235 243 249 255 263 268 270 272 273 273 273 272 272 271 269 270 272 273 272 269 263 261 265 269 270 271 273 273 273 274 276 277 278 281 282 282 283 284 280 269 254 241
244 251 256 260 263 266 270 272 274 277 277 277 277 278 279 280 280 280 279 274 267 262 265 269 272 275 276 274 272 274 277 277 278 280 279 277 277 276 265 246 233 227
249 253 256 258 259 261 264 267 269 273 276 278 281 282 283 282 282 283 281 274 269 267 268 271 274 277 278 276 274 274 276 277 280 282 278 272 268 261 249 241 238 234
251 252 252 253 255 256 258 260 263 265 267 270 275 280 283 284 285 286 285 281 278 276 275 278 280 281 280 277 275 274 274 274 277 280 274 265 258 252 248 249 248 243
256 255 254 254 253 253 254 256 258 261 263 266 270 274 279 282 285 286 286 285 284 283 281 280 281 281 279 277 275 274 273 271 272 273 265 254 248 247 248 248 245 242
257 256 255 255 254 256 260 262 264 266 270 272 274 275 277 280 282 282 281 281 281 280 279 278 278 279 278 276 275 273 271 269 263 256 249 245 244 244 243 240 239 238
260 261 262 262 262 263 265 267 269 271 272 273 274 275 276 279 280 279 280 280 280 279 279 278 278 280 280 278 275 272 268 263 254 245 240 241 244 244 238 233 234 236
Height
3135 3136 3137 3138 3139 3140 3140 3139 3139 3138 3138 3138 3138 3138 3137 3137 3137 3136 3137 3137 3137 3136 3136 3136 3135 3135 3135 3135 3136 3136 3136 3137 3137 3138 3138 3139 3139 3139 3140 3140 3140 3141
3133 3134 3135 3137 3138 3138 3138 3138 3138 3138 3138 3138 3138 3137 3137 3136 3136 3136 3136 3136 3137 3136 3136 3136 3136 3135 3136 3136 3136 3136 3137 3137 3138 3138 3138 3138 3139 3139 3139 3140 3140 3140
3131 3132 3133 3135 3136 3137 3137 3137 3137 3137 3137 3137 3137 3137 3136 3136 3136 3136 3136 3136 3137 3137 3136 3136 3136 3136 3136 3136 3137 3137 3137 3138 3138 3138 3139 3139 3139 3139 3140 3140 3140 3140
3129 3130 3132 3133 3134 3135 3136 3136 3136 3136 3136 3136 3136 3136 3136 3135 3135 3135 3136 3136 3137 3137 3137 3136 3136 3137 3137 3137 3138 3138 3138 3139 3139 3139 3140 3140 3140 3140 3140 3140 3140 3141
3127 3129 3130 3131 3132 3133 3134 3134 3135 3135 3135 3135 3135 3135 3135 3135 3135 3135 3135 3136 3137 3137 3137 3137 3137 3137 3138 3138 3138 3139 3139 3140 3140 3140 3141 3141 3141 3141 3141 3141 3141 3141
3125 3127 3128 3130 3131 3132 3132 3133 3133 3134 3134 3134 3134 3134 3135 3135 3135 3135 3135 3136 3137 3137 3137 3138 3138 3138 3138 3139 3139 3140 3140 3141 3141 3141 3141 3142 3142 3142 3142 3142 3142 3142
3124 3126 3127 3128 3129 3130 3131 3131 3132 3132 3133 3133 3133 3134 3134 3134 3135 3135 3135 3136 3137 3137 3138 3138 3138 3139 3139 3140 3140 3141 3141 3142 3142 3142 3142 3142 3142 3143 3143 3143 3143 3143
3123 3125 3126 3127 3128 3128 3129 3130 3130 3131 3132 3132 3133 3133 3134 3134 3134 3134 3135 3136 3136 3137 3137 3138 3138 3139 3139 3140 3141 3141 3142 3142 3142 3142 3143 3143 3143 3143 3143 3143 3143 3143
3121 3123 3124 3125 3126 3127 3127 3128 3129 3130 3131 3132 3132 3133 3133 3134 3134 3134 3134 3135 3136 3136 3137 3137 3138 3138 3139 3139 3140 3141 3141 3142 3142 3142 3143 3143 3143 3143 3143 3143 3143 3143
3119 3120 3122 3123 3124 3125 3126 3127 3128 3129 3130 3130 3131 3131 3132 3132 3133 3133 3134 3134 3135 3135 3136 3136 3137 3137 3138 3139 3139 3140 3141 3141 3142 3142 3142 3142 3142 3142 3143 3143 3143 3143
3115 3117 3119 3120 3121 3122 3124 3125 3127 3128 3129 3129 3130 3130 3131 3131 3132 3132 3133 3133 3134 3134 3135 3135 3136 3136 3137 3137 3138 3139 3140 3140 3141 3141 3141 3142 3142 3142 3142 3142 3142 3141
3113 3115 3116 3117 3118 3120 3122 3123 3125 3126 3128 3128 3129 3129 3129 3130 3130 3131 3131 3132 3132 3133 3133 3134 3134 3135 3135 3136 3137 3138 3139 3139 3140 3140 3140 3140 3141 3141 3141 3141 3141 3140
3108 3111 3113 3114 3117 3119 3121 3123 3124 3125 3126 3127 3127 3128 3128 3128 3129 3129 3130 3130 3131 3131 3131 3132 3133 3133 3134 3135 3136 3137 3137 3138 3138 3138 3138 3139 3139 3139 3139 3139 3139 3139
3105 3107 3110 3112 3115 3118 3121 3122 3123 3124 3124 3125 3125 3126 3126 3126 3127 3127 3128 3129 3129 3130 3130 3130 3131 3131 3132 3133 3134 3135 3135 3136 3136 3136 3136 3136 3136 3136 3136 3137 3137 3137
3105 3107 3109 3112 3115 3118 3119 3121 3122 3122 3122 3123 3123 3124 3124 3125 3125 3126 3127 3127 3128 3128 3128 3128 3128 3130 3131 3132 3132 3132 3133 3134 3133 3132 3132 3132 3132 3133 3134 3135 3134 3134
3106 3109 3111 3113 3115 3116 3117 3119 3119 3120 3121 3121 3122 3122 3123 3123 3124 3125 3125 3126 3127 3126 3125 3126 3128 3129 3130 3130 3129 3129 3130 3131 3130 3129 3129 3130 3131 3132 3132 3132 3131 3131
3107 3109 3110 3112 3113 3114 3115 3116 3117 3118 3119 3119 3120 3121 3122 3122 3122 3123 3124 3124 3125 3124 3124 3125 3128 3128 3128 3128 3128 3128 3128 3128 3127 3127 3128 3128 3128 3128 3129 3128 3127 3128
3108 3108 3109 3110 3111 3112 3113 3114 3114 3115 3116 3117 3118 3119 3119 3120 3121 3121 3122 3122 3122 3122 3122 3123 3125 3126 3126 3126 3126 3126 3126 3125 3124 3124 3125 3125 3124 3124 3125 3125 3124 3125
3107 3107 3108 3109 3110 3111 3112 3112 3113 3113 3114 3114 3115 3116 3117 3118 3118 3119 3120 3120 3120 3120 3119 3120 3121 3123 3124 3124 3124 3123 3123 3123 3121 3121 3122 3122 3121 3121 3121 3121 3122 3122
3106 3107 3107 3108 3108 3109 3110 3110 3110 3111 3111 3112 3113 3113 3114 3115 3116 3117 3117 3118 3117 3117 3117 3117 3118 3120 3121 3121 3121 3121 3121 3120 3119 3118 3119 3119 3118 3118 3118 3118 3118 3120
3104 3105 3106 3107 3107 3108 3108 3108 3108 3108 3109 3109 3110 3111 3112 3113 3113 3114 3115 3115 3114 3114 3114 3114 3115 3117 3118 3118 3118 3118 3118 3117 3116 3115 3115 3115 3115 3116 3115 3115 3115 3117
3103 3104 3105 3105 3106 3107 3107 3107 3106 3106 3107 3107 3107 3107 3108 3109 3110 3111 3112 3113 3113 3113 3112 3112 3113 3114 3114 3114 3114 3114 3114 3114 3113 3112 3112 3112 3113 3113 3113 3113 3114 3115
3102 3102 3103 3104 3104 3105 3105 3105 3105 3105 3105 3105 3104 3104 3104 3105 3105 3106 3107 3108 3109 3110 3109 3109 3109 3110 3110 3110 3110 3110 3110 3110 3109 3109 3108 3109 3110 3110 3111 3111 3111 3111
3100 3100 3101 3102 3102 3102 3102 3103 3103 3103 3104 3103 3103 3102 3102 3102 3102 3101 3102 3102 3103 3104 3105 3105 3105 3106 3106 3106 3106 3106 3106 3106 3106 3105 3105 3106 3106 3107 3108 3108 3108 3108
3098 3098 3098 3099 3100 3100 3100 3100 3100 3100 3101 3101 3100 3100 3100 3099 3099 3098 3098 3098 3099 3099 3100 3101 3101 3102 3102 3102 3103 3102 3102 3102 3102 3102 3102 3102 3102 3103 3105 3105 3105 3105
3095 3095 3096 3096 3097 3097 3096 3096 3096 3096 3097 3096 3096 3096 3096 3096 3095 3094 3094 3094 3094 3095 3096 3096 3097 3098 3099 3099 3099 3099 3099 3099 3100 3100 3100 3099 3099 3100 3102 3102 3102 3103